| time (UTC) | temp F | wind direction | speed MPH | gust MPH | rain 1hr in | rain 24hr in | rain mn in | humidity % | barometer mb |
| 20260507024951 | 56 | 107 | 2.0 | 5.0 | 0.00 | 0.00 | 0.00 | 83 | |
| 20260507024448 | 56 | 105 | 2.0 | 4.0 | 0.00 | 0.00 | 0.00 | 83 | |
| 20260507023944 | 56 | 136 | 0.0 | 4.0 | 0.00 | 0.00 | 0.00 | 83 | |
| 20260507023441 | 56 | 126 | 0.0 | 8.0 | 0.00 | 0.00 | 0.00 | 82 | |
| 20260507022938 | 57 | 54 | 1.0 | 4.0 | 0.00 | 0.00 | 0.00 | 83 | |
| 20260507022436 | 57 | 128 | 2.0 | 7.0 | 0.00 | 0.00 | 0.00 | 82 | |
| 20260507021930 | 57 | 110 | 3.0 | 6.0 | 0.00 | 0.00 | 0.00 | 82 | |
| 20260507021426 | 57 | 88 | 2.0 | 4.0 | 0.00 | 0.00 | 0.00 | 82 | |
| 20260507020924 | 57 | 93 | 2.0 | 5.0 | 0.00 | 0.00 | 0.00 | 82 | |
| 20260507020420 | 57 | 97 | 2.0 | 5.0 | 0.00 | 0.00 | 0.00 | 82 | |
| 20260507015918 | 57 | 42 | 0.0 | 4.0 | 0.00 | 0.00 | 0.00 | 82 | |
| 20260507015416 | 57 | 106 | 3.0 | 8.0 | 0.00 | 0.00 | 0.00 | 82 | |
| 20260507014913 | 57 | 109 | 3.0 | 7.0 | 0.00 | 0.00 | 0.00 | 82 | |
| 20260507014409 | 57 | 105 | 4.0 | 6.0 | 0.00 | 0.00 | 0.00 | 82 | |
| 20260507013905 | 57 | 185 | 1.0 | 6.0 | 0.00 | 0.00 | 0.00 | 82 | |
| 20260507013402 | 57 | 117 | 3.0 | 8.0 | 0.00 | 0.00 | 0.00 | 82 | |
| 20260507012900 | 57 | 114 | 5.0 | 8.0 | 0.00 | 0.00 | 0.00 | 82 | |
| 20260507012355 | 57 | 101 | 5.0 | 11.0 | 0.00 | 0.00 | 0.00 | 81 | |
| 20260507011847 | 57 | 107 | 2.0 | 5.0 | 0.00 | 0.00 | 0.00 | 82 | |
| 20260507011344 | 57 | 113 | 7.0 | 11.0 | 0.00 | 0.00 | 0.00 | 82 | |
| 20260507010838 | 57 | 113 | 9.0 | 10.0 | 0.00 | 0.00 | 0.00 | 82 | |
| 20260507010334 | 57 | 100 | 3.0 | 7.0 | 0.00 | 0.00 | 0.00 | 81 | |
| 20260507005831 | 57 | 114 | 5.0 | 8.0 | 0.00 | 0.00 | 0.00 | 81 | |
| 20260507005328 | 57 | 107 | 5.0 | 11.0 | 0.00 | 0.00 | 0.00 | 81 | |
| 20260507004825 | 57 | 113 | 3.0 | 5.0 | 0.00 | 0.00 | 0.00 | 81 | |
| 20260507004322 | 57 | 134 | 0.0 | 6.0 | 0.00 | 0.00 | 0.00 | 81 | |
| 20260507003819 | 57 | 92 | 2.0 | 5.0 | 0.00 | 0.00 | 0.00 | 82 | |
| 20260507003314 | 57 | 97 | 4.0 | 8.0 | 0.00 | 0.00 | 0.00 | 81 | |
| 20260507002809 | 57 | 119 | 2.0 | 4.0 | 0.00 | 0.00 | 0.00 | 81 | |
| 20260507002306 | 57 | 127 | 6.0 | 11.0 | 0.00 | 0.00 | 0.00 | 81 | |
| 20260507001803 | 57 | 111 | 2.0 | 6.0 | 0.00 | 0.00 | 0.00 | 81 | |
| 20260507001300 | 57 | 80 | 0.0 | 10.0 | 0.00 | 0.00 | 0.00 | 81 | |
| 20260507000756 | 57 | 132 | 0.0 | 9.0 | 0.00 | 0.00 | 0.00 | 81 | |
| 20260507000252 | 57 | 114 | 3.0 | 8.0 | 0.00 | 0.00 | 0.00 | 81 | |
| 20260506235749 | 57 | 111 | 4.0 | 11.0 | 0.00 | 0.00 | 0.00 | 81 | |
| 20260506235244 | 57 | 105 | 2.0 | 7.0 | 0.00 | 0.00 | 0.00 | 80 | |
| 20260506234742 | 57 | 121 | 5.0 | 8.0 | 0.00 | 0.00 | 0.00 | 80 | |
| 20260506234239 | 57 | 136 | 1.0 | 5.0 | 0.00 | 0.00 | 0.00 | 81 | |
| 20260506233736 | 57 | 103 | 2.0 | 7.0 | 0.00 | 0.00 | 0.00 | 80 | |
| 20260506233233 | 57 | 140 | 3.0 | 3.0 | 0.00 | 0.00 | 0.00 | 80 | |
| 20260506232730 | 57 | 238 | 0.0 | 5.0 | 0.00 | 0.00 | 0.00 | 81 | |
| 20260506232224 | 57 | 128 | 2.0 | 5.0 | 0.00 | 0.00 | 0.00 | 81 | |
| 20260506231722 | 57 | 165 | 1.0 | 9.0 | 0.00 | 0.00 | 0.00 | 81 | |
| 20260506231220 | 57 | 136 | 3.0 | 8.0 | 0.00 | 0.00 | 0.00 | 81 | |
| 20260506230716 | 57 | 115 | 4.0 | 6.0 | 0.00 | 0.00 | 0.00 | 80 | |
| 20260506230214 | 57 | 110 | 0.0 | 5.0 | 0.00 | 0.00 | 0.00 | 81 | |
| 20260506225710 | 57 | 158 | 2.0 | 8.0 | 0.00 | 0.00 | 0.00 | 81 | |
| 20260506225207 | 57 | 121 | 5.0 | 9.0 | 0.00 | 0.00 | 0.00 | 80 | |
| 20260506224703 | 57 | 130 | 1.0 | 8.0 | 0.00 | 0.00 | 0.00 | 81 | |
| 20260506224201 | 57 | 132 | 1.0 | 6.0 | 0.00 | 0.00 | 0.00 | 80 | |
| 20260506223656 | 57 | 230 | 2.0 | 9.0 | 0.00 | 0.00 | 0.00 | 80 | |
| 20260506223152 | 57 | 10 | 0.0 | 4.0 | 0.00 | 0.00 | 0.00 | 80 | |
| 20260506222650 | 57 | 142 | 2.0 | 5.0 | 0.00 | 0.00 | 0.00 | 80 | |
| 20260506222145 | 57 | 122 | 1.0 | 6.0 | 0.00 | 0.00 | 0.00 | 80 | |
| 20260506221644 | 57 | 111 | 6.0 | 9.0 | 0.00 | 0.00 | 0.00 | 79 | |
| 20260506221142 | 57 | 224 | 3.0 | 4.0 | 0.00 | 0.00 | 0.00 | 79 | |
| 20260506220638 | 57 | 81 | 0.0 | 6.0 | 0.00 | 0.00 | 0.00 | 79 | |
| 20260506220133 | 57 | 48 | 2.0 | 9.0 | 0.00 | 0.00 | 0.00 | 78 | |
| 20260506215630 | 57 | 74 | 3.0 | 8.0 | 0.00 | 0.00 | 0.00 | 79 | |
| 20260506215125 | 57 | 123 | 1.0 | 5.0 | 0.00 | 0.00 | 0.00 | 78 | |
| 20260506214622 | 57 | 77 | 0.0 | 5.0 | 0.00 | 0.00 | 0.00 | 78 | |
| 20260506214120 | 57 | 117 | 6.0 | 9.0 | 0.00 | 0.00 | 0.00 | 77 | |
| 20260506213618 | 57 | 122 | 5.0 | 8.0 | 0.00 | 0.00 | 0.00 | 77 | |
| 20260506213115 | 57 | 107 | 5.0 | 9.0 | 0.00 | 0.00 | 0.00 | 77 | |
| 20260506212612 | 57 | 108 | 5.0 | 11.0 | 0.00 | 0.00 | 0.00 | 77 | |
| 20260506212107 | 58 | 78 | 2.0 | 3.0 | 0.00 | 0.00 | 0.00 | 77 | |
| 20260506211603 | 58 | 64 | 1.0 | 6.0 | 0.00 | 0.00 | 0.00 | 76 | |
| 20260506211100 | 58 | 146 | 2.0 | 3.0 | 0.00 | 0.00 | 0.00 | 76 | |
| 20260506210556 | 58 | 147 | 2.0 | 7.0 | 0.00 | 0.00 | 0.00 | 77 | |
| 20260506210053 | 58 | 162 | 2.0 | 9.0 | 0.00 | 0.00 | 0.00 | 77 | |
| 20260506205550 | 59 | 127 | 3.0 | 9.0 | 0.00 | 0.00 | 0.00 | 75 | |
| 20260506205045 | 59 | 100 | 4.0 | 9.0 | 0.00 | 0.00 | 0.00 | 74 | |
| 20260506204543 | 59 | 7 | 3.0 | 11.0 | 0.00 | 0.00 | 0.00 | 75 | |
| 20260506204040 | 59 | 89 | 3.0 | 6.0 | 0.00 | 0.00 | 0.00 | 76 | |
| 20260506203538 | 59 | 111 | 3.0 | 5.0 | 0.00 | 0.00 | 0.00 | 77 | |
| 20260506203035 | 58 | 182 | 1.0 | 6.0 | 0.00 | 0.00 | 0.00 | 77 | |
| 20260506202532 | 58 | 202 | 2.0 | 9.0 | 0.00 | 0.00 | 0.00 | 78 | |
| 20260506202028 | 58 | 78 | 0.0 | 9.0 | 0.00 | 0.00 | 0.00 | 77 | |
| 20260506201526 | 59 | 118 | 4.0 | 8.0 | 0.00 | 0.00 | 0.00 | 76 | |
| 20260506201022 | 58 | 80 | 2.0 | 4.0 | 0.00 | 0.00 | 0.00 | 79 | |
| 20260506200518 | 57 | 136 | 2.0 | 7.0 | 0.00 | 0.00 | 0.00 | 79 | |
| 20260506200015 | 57 | 105 | 3.0 | 8.0 | 0.00 | 0.00 | 0.00 | 78 | |
| 20260506195512 | 58 | 158 | 1.0 | 5.0 | 0.00 | 0.00 | 0.00 | 79 | |
| 20260506195009 | 57 | 163 | 2.0 | 5.0 | 0.00 | 0.00 | 0.00 | 80 | |
| 20260506194506 | 57 | 73 | 2.0 | 9.0 | 0.00 | 0.00 | 0.00 | 82 | |
| 20260506194002 | 56 | 106 | 3.0 | 11.0 | 0.00 | 0.00 | 0.00 | 81 | |
| 20260506193500 | 56 | 128 | 2.0 | 13.0 | 0.00 | 0.00 | 0.00 | 81 | |
| 20260506192956 | 57 | 50 | 1.0 | 7.0 | 0.00 | 0.00 | 0.00 | 82 | |
| 20260506192454 | 56 | 101 | 1.0 | 11.0 | 0.00 | 0.00 | 0.00 | 82 | |
| 20260506191949 | 56 | 164 | 0.0 | 7.0 | 0.00 | 0.00 | 0.00 | 82 | |
| 20260506191447 | 56 | 111 | 3.0 | 6.0 | 0.00 | 0.00 | 0.00 | 83 | |
| 20260506190943 | 56 | 104 | 0.0 | 6.0 | 0.00 | 0.00 | 0.00 | 84 | |
| 20260506190440 | 55 | 80 | 3.0 | 8.0 | 0.00 | 0.00 | 0.00 | 84 | |
| 20260506185937 | 55 | 113 | 3.0 | 10.0 | 0.00 | 0.00 | 0.00 | 84 | |
| 20260506185434 | 55 | 108 | 6.0 | 9.0 | 0.00 | 0.00 | 0.00 | 84 | |
| 20260506184931 | 55 | 98 | 7.0 | 11.0 | 0.00 | 0.00 | 0.00 | 83 | |
| 20260506184427 | 56 | 105 | 6.0 | 13.0 | 0.00 | 0.00 | 0.00 | 84 | |
| 20260506183925 | 56 | 105 | 2.0 | 7.0 | 0.00 | 0.00 | 0.00 | 85 | |
| 20260506183420 | 55 | 102 | 6.0 | 8.0 | 0.00 | 0.00 | 0.00 | 86 | |
| 20260506182918 | 55 | 119 | 4.0 | 8.0 | 0.00 | 0.00 | 0.00 | 86 | |
| 20260506182415 | 55 | 222 | 3.0 | 7.0 | 0.00 | 0.00 | 0.00 | 87 | |
| 20260506181913 | 55 | 113 | 9.0 | 11.0 | 0.00 | 0.00 | 0.00 | 87 | |
| 20260506181410 | 55 | 109 | 6.0 | 9.0 | 0.00 | 0.00 | 0.00 | 88 | |
| 20260506180907 | 55 | 114 | 6.0 | 11.0 | 0.00 | 0.00 | 0.00 | 88 | |
| 20260506180402 | 55 | 89 | 0.0 | 11.0 | 0.00 | 0.00 | 0.00 | 89 | |
| 20260506175900 | 55 | 116 | 8.0 | 10.0 | 0.00 | 0.00 | 0.00 | 89 | |
| 20260506175356 | 55 | 59 | 0.0 | 5.0 | 0.00 | 0.00 | 0.00 | 90 | |
| 20260506174853 | 55 | 100 | 3.0 | 4.0 | 0.00 | 0.00 | 0.00 | 91 | |
| 20260506174351 | 54 | 113 | 3.0 | 11.0 | 0.00 | 0.00 | 0.00 | 90 | |
| 20260506173848 | 55 | 119 | 3.0 | 8.0 | 0.00 | 0.00 | 0.00 | 91 | |
| 20260506173344 | 54 | 111 | 4.0 | 12.0 | 0.00 | 0.00 | 0.00 | 92 | |
| 20260506172842 | 54 | 115 | 6.0 | 11.0 | 0.00 | 0.00 | 0.00 | 93 | |
| 20260506172338 | 54 | 109 | 4.0 | 8.0 | 0.00 | 0.00 | 0.00 | 93 | |
| 20260506171836 | 53 | 97 | 6.0 | 9.0 | 0.00 | 0.00 | 0.00 | 93 | |
| 20260506171333 | 53 | 122 | 5.0 | 12.0 | 0.00 | 0.00 | 0.00 | 94 | |
| 20260506170831 | 53 | 110 | 11.0 | 11.0 | 0.00 | 0.00 | 0.00 | 93 | |
| 20260506170326 | 53 | 88 | 4.0 | 8.0 | 0.00 | 0.00 | 0.00 | 93 | |
| 20260506165825 | 53 | 176 | 3.0 | 7.0 | 0.00 | 0.00 | 0.00 | 93 | |
| 20260506165323 | 53 | 109 | 7.0 | 10.0 | 0.00 | 0.00 | 0.00 | 92 | |
| 20260506164819 | 53 | 103 | 3.0 | 8.0 | 0.00 | 0.00 | 0.00 | 92 | |
| 20260506164316 | 54 | 160 | 2.0 | 5.0 | 0.00 | 0.00 | 0.00 | 93 | |
| 20260506163813 | 53 | 112 | 2.0 | 9.0 | 0.00 | 0.00 | 0.00 | 93 | |
| 20260506163308 | 53 | 91 | 3.0 | 7.0 | 0.00 | 0.00 | 0.00 | 93 | |
| 20260506162803 | 53 | 161 | 2.0 | 5.0 | 0.00 | 0.00 | 0.00 | 94 | |
| 20260506162301 | 53 | 104 | 3.0 | 8.0 | 0.00 | 0.00 | 0.00 | 94 | |
| 20260506161753 | 53 | 123 | 2.0 | 7.0 | 0.00 | 0.00 | 0.00 | 95 | |
| 20260506161250 | 53 | 116 | 7.0 | 10.0 | 0.00 | 0.00 | 0.00 | 95 | |
| 20260506160747 | 53 | 107 | 4.0 | 9.0 | 0.00 | 0.00 | 0.00 | 96 | |
| 20260506160244 | 53 | 105 | 4.0 | 12.0 | 0.00 | 0.00 | 0.00 | 97 | |
| 20260506155744 | 53 | 107 | 4.0 | 9.0 | 0.00 | 0.00 | 0.00 | 97 | |
| 20260506155240 | 53 | 80 | 3.0 | 10.0 | 0.00 | 0.00 | 0.00 | 98 | |
| 20260506153353 | 52 | 93 | 3.0 | 7.0 | 0.00 | 0.00 | 0.00 | 98 | |
| 20260506152850 | 52 | 89 | 1.0 | 6.0 | 0.00 | 0.00 | 0.00 | 98 | |
| 20260506152347 | 52 | 242 | 3.0 | 5.0 | 0.00 | 0.00 | 0.00 | 98 | |
| 20260506151845 | 52 | 75 | 0.0 | 3.0 | 0.00 | 0.00 | 0.00 | 98 | |
| 20260506151342 | 52 | 209 | 3.0 | 7.0 | 0.00 | 0.00 | 0.00 | 98 | |
| 20260506150839 | 52 | 129 | 2.0 | 5.0 | 0.00 | 0.00 | 0.00 | 98 | |
| 20260506150336 | 52 | 141 | 0.0 | 4.0 | 0.00 | 0.00 | 0.00 | 98 | |
| 20260506145832 | 52 | 96 | 2.0 | 5.0 | 0.00 | 0.00 | 0.00 | 98 | |
| 20260506145329 | 52 | 102 | 3.0 | 9.0 | 0.00 | 0.00 | 0.00 | 98 | |
| 20260506144826 | 52 | 110 | 4.0 | 7.0 | 0.00 | 0.00 | 0.00 | 98 | |
| 20260506144323 | 52 | 93 | 3.0 | 8.0 | 0.00 | 0.00 | 0.00 | 98 | |
| 20260506143821 | 52 | 99 | 3.0 | 9.0 | 0.00 | 0.00 | 0.00 | 98 | |
| 20260506143318 | 52 | 111 | 3.0 | 11.0 | 0.00 | 0.00 | 0.00 | 98 | |
| 20260506142816 | 52 | 110 | 3.0 | 6.0 | 0.00 | 0.00 | 0.00 | 97 | |
| 20260506142314 | 52 | 94 | 3.0 | 4.0 | 0.00 | 0.00 | 0.00 | 97 | |
| 20260506141812 | 52 | 94 | 4.0 | 6.0 | 0.00 | 0.00 | 0.00 | 97 | |
| 20260506141310 | 52 | 87 | 2.0 | 6.0 | 0.00 | 0.00 | 0.00 | 97 | |
| 20260506140807 | 52 | 172 | 1.0 | 7.0 | 0.00 | 0.00 | 0.00 | 97 | |
| 20260506140304 | 52 | 143 | 0.0 | 3.0 | 0.00 | 0.00 | 0.00 | 97 | |
| 20260506135801 | 52 | 108 | 3.0 | 3.0 | 0.00 | 0.00 | 0.00 | 96 | |
| 20260506135257 | 52 | 303 | 1.0 | 4.0 | 0.00 | 0.00 | 0.00 | 96 | |
| 20260506134754 | 52 | 220 | 1.0 | 7.0 | 0.00 | 0.00 | 0.00 | 96 | |
| 20260506134250 | 52 | 93 | 0.0 | 3.0 | 0.00 | 0.00 | 0.00 | 96 | |
| 20260506133748 | 52 | 197 | 0.0 | 2.0 | 0.00 | 0.00 | 0.00 | 96 | |
| 20260506133244 | 52 | 82 | 0.0 | 6.0 | 0.00 | 0.00 | 0.00 | 95 | |
| 20260506132741 | 52 | 98 | 3.0 | 5.0 | 0.00 | 0.00 | 0.00 | 95 | |
| 20260506132238 | 52 | 154 | 2.0 | 6.0 | 0.00 | 0.00 | 0.00 | 94 | |
| 20260506131736 | 52 | 182 | 1.0 | 5.0 | 0.00 | 0.00 | 0.00 | 94 | |
| 20260506131232 | 52 | 126 | 4.0 | 9.0 | 0.00 | 0.00 | 0.00 | 94 | |
| 20260506130729 | 52 | 118 | 2.0 | 3.0 | 0.00 | 0.00 | 0.00 | 94 | |
| 20260506130226 | 52 | 101 | 5.0 | 10.0 | 0.00 | 0.00 | 0.00 | 94 | |
| 20260506125724 | 53 | 99 | 1.0 | 7.0 | 0.00 | 0.00 | 0.00 | 94 | |
| 20260506125222 | 52 | 117 | 4.0 | 11.0 | 0.00 | 0.00 | 0.00 | 93 | |
| 20260506124720 | 53 | 100 | 8.0 | 10.0 | 0.00 | 0.00 | 0.00 | 93 | |
| 20260506124217 | 53 | 105 | 3.0 | 9.0 | 0.00 | 0.00 | 0.00 | 93 | |
| 20260506123714 | 53 | 106 | 4.0 | 6.0 | 0.00 | 0.00 | 0.00 | 93 | |
| 20260506123213 | 53 | 112 | 5.0 | 7.0 | 0.00 | 0.00 | 0.00 | 93 | |
| 20260506122709 | 53 | 101 | 3.0 | 8.0 | 0.00 | 0.00 | 0.00 | 93 | |
| 20260506122207 | 53 | 102 | 2.0 | 8.0 | 0.00 | 0.00 | 0.00 | 93 | |
| 20260506121705 | 53 | 108 | 1.0 | 4.0 | 0.00 | 0.00 | 0.00 | 93 | |
| 20260506121201 | 53 | 116 | 3.0 | 7.0 | 0.00 | 0.00 | 0.00 | 93 | |
| 20260506120659 | 53 | 108 | 3.0 | 7.0 | 0.00 | 0.00 | 0.00 | 93 | |
| 20260506120156 | 53 | 124 | 5.0 | 8.0 | 0.00 | 0.00 | 0.00 | 93 | |
| 20260506115654 | 53 | 104 | 4.0 | 9.0 | 0.00 | 0.00 | 0.00 | 92 | |
| 20260506115152 | 53 | 112 | 3.0 | 7.0 | 0.00 | 0.00 | 0.00 | 92 | |
| 20260506114649 | 53 | 251 | 3.0 | 5.0 | 0.00 | 0.00 | 0.00 | 92 | |
| 20260506114147 | 53 | 111 | 3.0 | 11.0 | 0.00 | 0.00 | 0.00 | 92 | |
| 20260506113645 | 53 | 112 | 6.0 | 8.0 | 0.00 | 0.00 | 0.00 | 92 | |
| 20260506113142 | 53 | 110 | 5.0 | 7.0 | 0.00 | 0.00 | 0.00 | 92 | |
| 20260506112638 | 53 | 102 | 5.0 | 8.0 | 0.00 | 0.00 | 0.00 | 92 | |
| 20260506112136 | 53 | 117 | 3.0 | 7.0 | 0.00 | 0.00 | 0.00 | 92 | |
| 20260506111634 | 53 | 87 | 2.0 | 6.0 | 0.00 | 0.00 | 0.00 | 93 | |
| 20260506111131 | 53 | 119 | 4.0 | 8.0 | 0.00 | 0.00 | 0.00 | 93 | |
| 20260506110628 | 53 | 103 | 5.0 | 8.0 | 0.00 | 0.00 | 0.00 | 93 | |
| 20260506110126 | 53 | 111 | 2.0 | 8.0 | 0.00 | 0.00 | 0.00 | 93 | |
| 20260506105622 | 53 | 92 | 2.0 | 12.0 | 0.00 | 0.00 | 0.00 | 93 | |
| 20260506105119 | 53 | 114 | 2.0 | 5.0 | 0.00 | 0.00 | 0.00 | 93 | |
| 20260506104617 | 53 | 94 | 3.0 | 4.0 | 0.00 | 0.00 | 0.00 | 93 | |
| 20260506104114 | 52 | 105 | 4.0 | 6.0 | 0.00 | 0.00 | 0.00 | 93 | |
| 20260506103612 | 53 | 87 | 0.0 | 3.0 | 0.00 | 0.00 | 0.00 | 93 | |
| 20260506103108 | 52 | 124 | 1.0 | 4.0 | 0.00 | 0.00 | 0.00 | 93 | |
| 20260506102607 | 52 | 104 | 2.0 | 5.0 | 0.00 | 0.00 | 0.00 | 93 | |
| 20260506102104 | 53 | 199 | 1.0 | 4.0 | 0.00 | 0.00 | 0.00 | 93 | |
| 20260506101600 | 53 | 165 | 0.0 | 5.0 | 0.00 | 0.00 | 0.00 | 93 | |
| 20260506101057 | 53 | 54 | 1.0 | 8.0 | 0.00 | 0.00 | 0.00 | 93 | |
| 20260506100555 | 53 | 56 | 2.0 | 5.0 | 0.00 | 0.00 | 0.00 | 93 | |
| 20260506100053 | 53 | 124 | 1.0 | 5.0 | 0.00 | 0.00 | 0.00 | 92 | |
| 20260506095552 | 53 | 235 | 3.0 | 5.0 | 0.00 | 0.00 | 0.00 | 92 | |
| 20260506095048 | 53 | 217 | 2.0 | 5.0 | 0.00 | 0.00 | 0.00 | 92 | |
| 20260506094546 | 53 | 108 | 3.0 | 6.0 | 0.00 | 0.00 | 0.00 | 92 | |
| 20260506094043 | 53 | 85 | 4.0 | 7.0 | 0.00 | 0.00 | 0.00 | 92 | |
| 20260506093542 | 53 | 141 | 0.0 | 7.0 | 0.00 | 0.00 | 0.00 | 92 | |
| 20260506093039 | 53 | 93 | 4.0 | 5.0 | 0.00 | 0.00 | 0.00 | 92 | |
| 20260506092536 | 53 | 113 | 1.0 | 7.0 | 0.00 | 0.00 | 0.00 | 92 | |
| 20260506092033 | 53 | 255 | 1.0 | 6.0 | 0.00 | 0.00 | 0.00 | 92 | |
| 20260506091531 | 53 | 114 | 5.0 | 9.0 | 0.00 | 0.00 | 0.00 | 92 | |
| 20260506091028 | 53 | 115 | 4.0 | 7.0 | 0.00 | 0.00 | 0.00 | 92 | |
| 20260506090526 | 53 | 80 | 2.0 | 6.0 | 0.00 | 0.00 | 0.00 | 91 | |
| 20260506090022 | 53 | 118 | 4.0 | 9.0 | 0.00 | 0.00 | 0.00 | 91 | |
| 20260506085519 | 53 | 275 | 1.0 | 5.0 | 0.00 | 0.00 | 0.00 | 91 | |
| 20260506085015 | 53 | 118 | 1.0 | 5.0 | 0.00 | 0.00 | 0.00 | 91 | |
| 20260506084513 | 53 | 88 | 3.0 | 7.0 | 0.00 | 0.00 | 0.00 | 90 | |
| 20260506084008 | 54 | 127 | 3.0 | 12.0 | 0.00 | 0.00 | 0.00 | 90 | |
| 20260506083506 | 54 | 114 | 4.0 | 9.0 | 0.00 | 0.00 | 0.00 | 90 | |
| 20260506083003 | 54 | 109 | 4.0 | 8.0 | 0.00 | 0.00 | 0.00 | 90 | |
| 20260506082500 | 54 | 110 | 2.0 | 8.0 | 0.00 | 0.00 | 0.00 | 90 | |
| 20260506081955 | 54 | 107 | 2.0 | 8.0 | 0.00 | 0.00 | 0.00 | 90 | |
| 20260506081454 | 54 | 108 | 5.0 | 7.0 | 0.00 | 0.00 | 0.00 | 90 | |
| 20260506080951 | 54 | 111 | 4.0 | 10.0 | 0.00 | 0.00 | 0.00 | 90 | |
| 20260506080448 | 54 | 108 | 1.0 | 10.0 | 0.00 | 0.00 | 0.00 | 89 | |
| 20260506073432 | 55 | 68 | 5.0 | 7.0 | 0.00 | 0.00 | 0.00 | 88 | |
| 20260506072929 | 55 | 107 | 3.0 | 6.0 | 0.00 | 0.00 | 0.00 | 88 | |
| 20260506072426 | 55 | 106 | 4.0 | 7.0 | 0.00 | 0.00 | 0.00 | 88 | |
| 20260506071924 | 55 | 94 | 5.0 | 9.0 | 0.00 | 0.00 | 0.00 | 88 | |
| 20260506071422 | 55 | 97 | 5.0 | 9.0 | 0.00 | 0.00 | 0.00 | 88 | |
| 20260506070918 | 55 | 85 | 6.0 | 8.0 | 0.00 | 0.00 | 0.00 | 88 | |
| 20260506070415 | 55 | 112 | 9.0 | 10.0 | 0.00 | 0.00 | 0.00 | 88 | |
| 20260506062353 | 57 | 89 | 0.0 | 5.0 | 0.00 | 0.00 | 0.00 | 86 | |
| 20260506061848 | 57 | 95 | 1.0 | 4.0 | 0.00 | 0.00 | 0.00 | 86 | |
| 20260506061345 | 57 | 88 | 1.0 | 4.0 | 0.00 | 0.00 | 0.00 | 86 | |
| 20260506060843 | 57 | 101 | 1.0 | 4.0 | 0.00 | 0.00 | 0.00 | 85 | |
| 20260506060341 | 57 | 63 | 4.0 | 6.0 | 0.00 | 0.00 | 0.00 | 85 | |
| 20260506051313 | 59 | 85 | 3.0 | 5.0 | 0.00 | 0.00 | 0.00 | 83 | |
| 20260506050811 | 59 | 63 | 3.0 | 7.0 | 0.00 | 0.00 | 0.00 | 83 | |
| 20260506050308 | 59 | 103 | 3.0 | 8.0 | 0.00 | 0.00 | 0.00 | 83 | |
| 20260506044758 | 59 | 104 | 5.0 | 6.0 | 0.00 | 0.00 | 0.00 | 83 | |
| 20260506044256 | 59 | 70 | 2.0 | 4.0 | 0.00 | 0.00 | 0.00 | 83 | |
| 20260506043753 | 59 | 63 | 3.0 | 7.0 | 0.00 | 0.00 | 0.00 | 84 | |
| 20260506043250 | 59 | 64 | 3.0 | 4.0 | 0.00 | 0.00 | 0.00 | 84 | |
| 20260506042749 | 59 | 94 | 3.0 | 5.0 | 0.00 | 0.00 | 0.00 | 83 | |
| 20260506042248 | 60 | 93 | 4.0 | 6.0 | 0.00 | 0.00 | 0.00 | 82 | |
| 20260506041746 | 60 | 80 | 3.0 | 6.0 | 0.00 | 0.00 | 0.00 | 82 | |
| 20260506041242 | 60 | 111 | 4.0 | 5.0 | 0.00 | 0.00 | 0.00 | 82 | |
| 20260506040740 | 60 | 114 | 5.0 | 8.0 | 0.00 | 0.00 | 0.00 | 82 | |
| 20260506040237 | 60 | 110 | 3.0 | 7.0 | 0.00 | 0.00 | 0.00 | 82 | |
| 20260506035733 | 60 | 85 | 2.0 | 5.0 | 0.00 | 0.00 | 0.00 | 82 | |
| 20260506035230 | 60 | 115 | 3.0 | 6.0 | 0.00 | 0.00 | 0.00 | 81 | |
| 20260506034727 | 60 | 117 | 2.0 | 6.0 | 0.00 | 0.00 | 0.00 | 81 | |
| 20260506034224 | 60 | 99 | 4.0 | 5.0 | 0.00 | 0.00 | 0.00 | 81 | |
| 20260506033721 | 61 | 109 | 4.0 | 5.0 | 0.00 | 0.00 | 0.00 | 80 | |
| 20260506033218 | 61 | 109 | 3.0 | 4.0 | 0.00 | 0.00 | 0.00 | 80 | |
| 20260506032715 | 61 | 113 | 2.0 | 5.0 | 0.00 | 0.00 | 0.00 | 79 | |
| 20260506032212 | 62 | 111 | 2.0 | 3.0 | 0.00 | 0.00 | 0.00 | 78 | |
| 20260506031709 | 62 | 112 | 2.0 | 5.0 | 0.00 | 0.00 | 0.00 | 77 | |
| 20260506031206 | 62 | 100 | 3.0 | 4.0 | 0.00 | 0.00 | 0.00 | 76 | |
| 20260506030705 | 63 | 107 | 2.0 | 4.0 | 0.00 | 0.00 | 0.00 | 75 | |
| 20260506030202 | 63 | 83 | 1.0 | 3.0 | 0.00 | 0.00 | 0.00 | 75 | |
| 20260506025658 | 63 | 104 | 2.0 | 3.0 | 0.00 | 0.00 | 0.00 | 74 |